This is the latest recevied weather packets stored in our database for station/object E22ZMG-1. If no packets are shown the sender has not sent any weather packets the latest 1 day(s).
| Time | Temp. | Humidity | Pressure | Rain* | Wind** | Luminosity | Snow |
|---|---|---|---|---|---|---|---|
| 1778022238 | 30.56° C | 65% | 975 hPa | - | 0 m/s | 0 W/m² | - |
| 1778021611 | 30.56° C | 64% | 975 hPa | - | 0 m/s | 0 W/m² | - |
| 1778020986 | 30.56° C | 63% | 974 hPa | - | 0 m/s | 0 W/m² | - |
| 1778019349 | 31.11° C | 63% | 974 hPa | - | 0 m/s | 0 W/m² | - |
| 1778018722 | 30.56° C | 63% | 974 hPa | - | 0 m/s | 0 W/m² | - |
| 1778018097 | 31.11° C | 61% | 974 hPa | - | 0 m/s | 0 W/m² | - |
| 1778017470 | 32.22° C | 59% | 974 hPa | - | 0 m/s | 0 W/m² | - |
| 1778016314 | 30.56° C | 63% | 974 hPa | - | 0 m/s | 0 W/m² | - |
| 1778015689 | 31.11° C | 62% | 974 hPa | - | 0 m/s | 0 W/m² | - |
| 1778015063 | 31.11° C | 62% | 974 hPa | - | 0 m/s | 0 W/m² | - |
| 1778014438 | 31.67° C | 60% | 974 hPa | - | 0 m/s | 0 W/m² | - |
| 1778013813 | 31.11° C | 62% | 974 hPa | - | 0 m/s | 0 W/m² | - |
| 1778013188 | 31.11° C | 63% | 974 hPa | - | 0 m/s | 0 W/m² | - |
| 1778012563 | 31.67° C | 61% | 974 hPa | - | 0 m/s | 0 W/m² | - |
| 1778011939 | 31.67° C | 60% | 974 hPa | - | 0 m/s | 0 W/m² | - |
| 1778011313 | 31.11° C | 61% | 974 hPa | - | 0 m/s | 0 W/m² | - |
| 1778010688 | 32.78° C | 57% | 974 hPa | - | 0 m/s | 0 W/m² | - |
| 1778010063 | 32.78° C | 57% | 974 hPa | - | 0 m/s | 0 W/m² | - |
| 1778009438 | 32.78° C | 58% | 974 hPa | - | 0 m/s | 0 W/m² | - |
| 1778008812 | 33.33° C | 56% | 974 hPa | - | 0 m/s | 0 W/m² | - |
| 1778008186 | 32.78° C | 58% | 974 hPa | - | 0 m/s | 0 W/m² | - |
| 1778007560 | 32.78° C | 57% | 974 hPa | - | 0 m/s | 0 W/m² | - |
| 1778006933 | 33.33° C | 56% | 974 hPa | - | 0 m/s | 0 W/m² | - |
| 1778006056 | 32.22° C | 58% | 974 hPa | - | 0 m/s | 0 W/m² | - |
| 1778005431 | 33.33° C | 56% | 974 hPa | - | 0 m/s | 0 W/m² | - |
* Rain since midnight (hover to see other rain measurements)
** Current wind speed in m/s (hover to see current wind gust speed)